• In Austria
  • List of Countries
  • For 7 days
  • Water Temperature
  • Satellite Maps
  • Weather Map
  • News
  • Weather Widgets
  • user-avatar
    Login

    Hourly Weather Blotnica

    Today, 15 October, Monday

    Time Temperature Precipitation Wind Pressure Humidity
    00:00 +15°C° 0 mm 6 mps 761 mmHg 60%
    01:00 +15°C° 0 mm 6 mps 761 mmHg 63%
    02:00 +14°C° 0 mm 6 mps 761 mmHg 63%
    03:00 +14°C° 0 mm 6 mps 761 mmHg 62%
    04:00 +14°C° 0 mm 6 mps 761 mmHg 61%
    05:00 +13°C° 0 mm 6 mps 761 mmHg 59%
    06:00 +13°C° 0 mm 6 mps 761 mmHg 57%
    07:00 +13°C° 0 mm 6 mps 761 mmHg 54%
    08:00 +14°C° 0 mm 6 mps 761 mmHg 50%
    09:00 +16°C° 0 mm 6 mps 761 mmHg 47%
    10:00 +17°C° 0 mm 6 mps 761 mmHg 43%
    11:00 +19°C° 0 mm 6 mps 761 mmHg 41%
    12:00 +20°C° 0 mm 6 mps 761 mmHg 40%
    13:00 +21°C° 0 mm 6 mps 761 mmHg 39%
    14:00 +21°C° 0 mm 5 mps 761 mmHg 41%
    15:00 +20°C° 0 mm 5 mps 761 mmHg 43%
    16:00 +20°C° 0 mm 5 mps 761 mmHg 45%
    17:00 +19°C° 0 mm 4 mps 761 mmHg 47%
    18:00 +18°C° 0 mm 4 mps 761 mmHg 49%
    19:00 +17°C° 0 mm 4 mps 761 mmHg 51%
    20:00 +15°C° 0 mm 4 mps 761 mmHg 53%
    21:00 +15°C° 0 mm 4 mps 761 mmHg 56%
    22:00 +14°C° 0 mm 4 mps 761 mmHg 58%
    23:00 +14°C° 0 mm 4 mps 761 mmHg 60%

    Tomorrow, 16 October, Tuesday

    Time Temperature Precipitation Wind Pressure Humidity
    00:00 +14°C° 0 mm 4 mps 762 mmHg 62%
    01:00 +13°C° 0 mm 4 mps 762 mmHg 64%
    02:00 +13°C° 0 mm 3 mps 762 mmHg 65%
    03:00 +13°C° 0 mm 3 mps 762 mmHg 66%
    04:00 +12°C° 0 mm 3 mps 762 mmHg 68%
    05:00 +12°C° 0 mm 3 mps 762 mmHg 68%
    06:00 +12°C° 0 mm 3 mps 762 mmHg 69%
    07:00 +12°C° 0 mm 3 mps 762 mmHg 70%
    08:00 +13°C° 0 mm 3 mps 762 mmHg 65%
    09:00 +16°C° 0 mm 3 mps 763 mmHg 59%
    10:00 +18°C° 0 mm 3 mps 763 mmHg 54%
    11:00 +19°C° 0 mm 3 mps 763 mmHg 51%
    12:00 +20°C° 0 mm 2 mps 763 mmHg 48%
    13:00 +21°C° 0 mm 2 mps 763 mmHg 45%
    14:00 +20°C° 0 mm 2 mps 763 mmHg 48%
    15:00 +20°C° 0 mm 2 mps 763 mmHg 51%
    16:00 +20°C° 0 mm 1 mps 762 mmHg 54%
    17:00 +18°C° 0 mm 2 mps 763 mmHg 56%
    18:00 +17°C° 0 mm 2 mps 763 mmHg 59%
    19:00 +16°C° 0 mm 2 mps 763 mmHg 62%
    20:00 +15°C° 0 mm 2 mps 763 mmHg 63%
    21:00 +15°C° 0 mm 2 mps 763 mmHg 64%
    22:00 +14°C° 0 mm 2 mps 763 mmHg 65%
    23:00 +14°C° 0 mm 2 mps 763 mmHg 67%

    Day after tomorrow, 17 October, Wednesday

    Time Temperature Precipitation Wind Pressure Humidity
    00:00 +14°C° 0 mm 2 mps 763 mmHg 68%
    01:00 +13°C° 0 mm 2 mps 763 mmHg 69%
    02:00 +13°C° 0 mm 2 mps 763 mmHg 71%
    03:00 +13°C° 0 mm 2 mps 763 mmHg 72%
    04:00 +13°C° 0 mm 2 mps 763 mmHg 74%
    05:00 +12°C° 0 mm 2 mps 763 mmHg 75%
    06:00 +12°C° 0 mm 2 mps 763 mmHg 77%
    07:00 +12°C° 0 mm 2 mps 763 mmHg 78%
    08:00 +14°C° 0 mm 2 mps 763 mmHg 73%
    09:00 +15°C° 0 mm 2 mps 763 mmHg 68%
    10:00 +17°C° 0 mm 2 mps 763 mmHg 62%
    11:00 +18°C° 0 mm 2 mps 763 mmHg 60%
    12:00 +19°C° 0 mm 2 mps 763 mmHg 57%
    13:00 +21°C° 0 mm 1 mps 763 mmHg 54%
    14:00 +21°C° 0 mm 1 mps 763 mmHg 57%
    15:00 +20°C° 0 mm 1 mps 763 mmHg 60%
    16:00 +20°C° 0 mm 1 mps 763 mmHg 63%
    17:00 +18°C° 0 mm 1 mps 763 mmHg 66%
    18:00 +16°C° 0 mm 1 mps 763 mmHg 70%
    19:00 +15°C° 0 mm 2 mps 763 mmHg 73%
    20:00 +15°C° 0 mm 2 mps 763 mmHg 75%
    21:00 +14°C° 0 mm 2 mps 763 mmHg 77%
    22:00 +14°C° 0 mm 2 mps 763 mmHg 78%
    23:00 +14°C° 0 mm 2 mps 763 mmHg 80%

    18 October, Thursday

    Time Temperature Precipitation Wind Pressure Humidity
    00:00 +13°C° 0 mm 2 mps 763 mmHg 81%
    01:00 +13°C° 0 mm 2 mps 763 mmHg 82%
    02:00 +13°C° 0 mm 2 mps 763 mmHg 83%
    03:00 +13°C° 0 mm 1 mps 763 mmHg 84%
    04:00 +12°C° 0 mm 1 mps 763 mmHg 85%
    05:00 +12°C° 0 mm 1 mps 763 mmHg 85%
    06:00 +12°C° 0 mm 1 mps 763 mmHg 85%
    07:00 +12°C° 0 mm 1 mps 763 mmHg 86%
    08:00 +14°C° 0 mm 1 mps 763 mmHg 79%
    09:00 +15°C° 0 mm 1 mps 764 mmHg 72%
    10:00 +18°C° 0 mm 1 mps 764 mmHg 66%
    11:00 +18°C° 0 mm 2 mps 764 mmHg 63%
    12:00 +18°C° 0 mm 2 mps 764 mmHg 61%
    13:00 +19°C° 0 mm 2 mps 764 mmHg 58%
    14:00 +18°C° 0 mm 2 mps 764 mmHg 61%
    15:00 +18°C° 0 mm 2 mps 764 mmHg 65%
    16:00 +17°C° 0 mm 2 mps 763 mmHg 68%
    17:00 +16°C° 0 mm 2 mps 764 mmHg 73%
    18:00 +15°C° 0 mm 2 mps 764 mmHg 78%
    19:00 +13°C° 0 mm 2 mps 764 mmHg 83%
    20:00 +13°C° 0 mm 2 mps 764 mmHg 86%
    21:00 +13°C° 0 mm 2 mps 765 mmHg 88%
    22:00 +12°C° 0 mm 3 mps 765 mmHg 90%
    23:00 +12°C° 0 mm 3 mps 765 mmHg 91%

    19 October, Friday

    Time Temperature Precipitation Wind Pressure Humidity
    00:00 +12°C° 0 mm 3 mps 765 mmHg 91%
    01:00 +12°C° 0 mm 3 mps 765 mmHg 92%
    02:00 +11°C° 0 mm 3 mps 765 mmHg 91%
    03:00 +11°C° 0 mm 3 mps 765 mmHg 90%
    04:00 +11°C° 0 mm 3 mps 765 mmHg 89%
    05:00 +11°C° 0 mm 3 mps 765 mmHg 89%
    06:00 +10°C° 0 mm 3 mps 765 mmHg 89%
    07:00 +10°C° 0 mm 3 mps 765 mmHg 90%
    08:00 +11°C° 0 mm 3 mps 765 mmHg 83%
    09:00 +12°C° 0 mm 3 mps 766 mmHg 76%
    10:00 +13°C° 0 mm 4 mps 766 mmHg 70%
    11:00 +13°C° 0 mm 4 mps 766 mmHg 67%
    12:00 +14°C° 0 mm 4 mps 766 mmHg 65%
    13:00 +14°C° 0 mm 4 mps 766 mmHg 63%
    14:00 +13°C° 0 mm 4 mps 766 mmHg 65%
    15:00 +13°C° 0 mm 4 mps 766 mmHg 68%
    16:00 +12°C° 0 mm 4 mps 765 mmHg 71%
    17:00 +11°C° 0 mm 4 mps 766 mmHg 76%
    18:00 +10°C° 0 mm 4 mps 766 mmHg 81%
    19:00 +9°C° 0 mm 3 mps 766 mmHg 86%
    20:00 +8°C° 0 mm 3 mps 766 mmHg 87%
    21:00 +8°C° 0 mm 3 mps 766 mmHg 88%
    22:00 +8°C° 0 mm 3 mps 766 mmHg 89%
    23:00 +8°C° 0 mm 3 mps 766 mmHg 90%

    20 October, Saturday

    Time Temperature Precipitation Wind Pressure Humidity
    00:00 +7°C° 0 mm 4 mps 767 mmHg 90%
    01:00 +6°C° 0 mm 4 mps 767 mmHg 91%
    02:00 +6°C° 0 mm 4 mps 767 mmHg 91%
    03:00 +6°C° 0 mm 4 mps 767 mmHg 91%
    04:00 +6°C° 0 mm 5 mps 767 mmHg 91%
    05:00 +7°C° 0 mm 5 mps 767 mmHg 89%
    06:00 +7°C° 0 mm 4 mps 767 mmHg 87%
    07:00 +7°C° 0 mm 4 mps 767 mmHg 85%
    08:00 +8°C° 0 mm 5 mps 768 mmHg 80%
    09:00 +9°C° 0 mm 5 mps 768 mmHg 74%
    10:00 +10°C° 0 mm 5 mps 768 mmHg 68%
    11:00 +10°C° 0 mm 5 mps 768 mmHg 67%
    12:00 +11°C° 0 mm 6 mps 768 mmHg 66%
    13:00 +11°C° 0 mm 6 mps 768 mmHg 65%
    14:00 +11°C° 0 mm 6 mps 768 mmHg 68%
    15:00 +11°C° 0 mm 6 mps 768 mmHg 70%
    16:00 +10°C° 0 mm 6 mps 768 mmHg 73%
    17:00 +10°C° 0 mm 5 mps 768 mmHg 76%
    18:00 +10°C° 0 mm 5 mps 768 mmHg 79%
    19:00 +10°C° 0 mm 5 mps 769 mmHg 82%
    20:00 +9°C° 0 mm 5 mps 769 mmHg 84%
    21:00 +9°C° 0 mm 5 mps 769 mmHg 86%
    22:00 +10°C° 0 mm 4 mps 769 mmHg 88%
    23:00 +9°C° 0 mm 5 mps 769 mmHg 90%
    Show more